Regional Weather Roundup
Issued by NWS

Home | Current Version | Previous Version | Graphics & Text | Print | Product List | Glossary On
Versions: 1 2 3 4 5 6 7 8 9 10 11 12 13 14 15 16 17 18 19 20 21 22 23 24 25 26 27 28 29 30 31 32 33 34 35 36 37 38 39 40 41 42 43 44 45 46 47 48 49 50
000
ASUS43 KBIS 180620
RWRND

NORTH DAKOTA REGIONAL WEATHER ROUNDUP
NATIONAL WEATHER SERVICE BISMARCK ND
100 AM CDT SAT APR 18 2015

NOTE: "FAIR" INDICATES FEW OR NO CLOUDS BELOW 12,000 FEET WITH NO
SIGNIFICANT WEATHER AND/OR OBSTRUCTIONS TO VISIBILITY.


NDZ001>003-009>011-017-180700-
NORTHWEST NORTH DAKOTA

CITY           SKY/WX    TMP DP  RH WIND       PRES   REMARKS
WILLISTON      CLEAR     51  27  39 SE8       30.07S
6HR MIN TEMP:  51; 6HR MAX TEMP:  70;

MINOT          FAIR      44  26  49 E9        30.11S
MINOT AFB      FAIR      40  28  62 SE7       30.11S
$$

NDZ018>021-031>035-040>046-180700-
SOUTHWEST NORTH DAKOTA

CITY           SKY/WX    TMP DP  RH WIND       PRES   REMARKS
BISMARCK       CLEAR     46  29  51 E8        30.11S
6HR MIN TEMP:  42; 6HR MAX TEMP:  72;

DICKINSON      CLEAR     43  21  41 E9        30.06S
GARRISON         N/A     47  27  45 E13       30.10S
6HR MIN TEMP:  47; 6HR MAX TEMP:  69;

HETTINGER ARPT PTCLDY    32  26  78 W3        30.08F
$$

NDZ004>008-012>016-024-026-027-054-180700-
NORTHEAST NORTH DAKOTA

CITY           SKY/WX    TMP DP  RH WIND       PRES   REMARKS
GRAND FORKS    FAIR      35  27  72 N7        30.15S
GRND FRKS AFB  FAIR      34  26  73 N3        30.15S
DEVILS LAKE    FAIR      39  27  60 E6        30.14S
$$

NDZ022-023-025-028>030-036>039-047>053-180700-
SOUTHEAST NORTH DAKOTA

CITY           SKY/WX    TMP DP  RH WIND       PRES   REMARKS
FARGO          FAIR      48  21  34 N10       30.11R
6HR MIN TEMP:  48; 6HR MAX TEMP:  74;

JAMESTOWN      FAIR      40  22  48 NE6       30.12R
$$




USA.gov is the U.S. government's official web portal to all federal, state and local government web resources and services.